Location: Unspecified
(0.0000°N, 0.0000°E)
Time: 18:57:38
(UTC+00:00)

Vanguard 2 Rocket - Pass Details

Date: 25 January 2020
Orbit: 554 x 3327 km, 32.9° (Epoch: 20 February)

Event Time Altitude Azimuth Distance (km) Brightness Sun altitude
Rises 21:28:17 0° 220° (SW) 6,134 11.8 -45.5°
Reaches altitude 10° 21:34:45 10° 203° (SSW) 4,512 10.8 -47.0°
Enters shadow 21:41:08 18° 171° (S) 3,231 9.7 -48.4°
Maximum altitude 21:41:53 18° 165° (SSE) 3,139 - -48.5°
Drops below altitude 10° 21:47:05 10° 125° (SE) 3,134 - -49.7°
Sets 21:50:23 0° 105° (ESE) 3,710 - -50.4°
